Flag for Haiti Weather past 2 weeks in Labadee, Haiti

Now
75 °F

Passing clouds.


Feels Like: 73 °F
Forecast: 76 / 87 °F
Wind: 5 mph from Southeast

Location: Santiago

Current Time: Oct 23, 2014 at 5:50:46 AM

Latest Report: Oct 23, 2014 at 5:00 AM


Visibility: N/A

Pressure: 29.89 "Hg

Humidity: 100%

Dew point: 75 °F

Location of LabadeeLocation

Historic Weather in Labadee — Graph

°F

Labadee temperature yesterday

Maximum temperature yesterday: 90 °F (at 3:00 PM)
Minimum temperature yesterday: 72 °F (at 5:00 AM)
Average temperature yesterday: 81 °F

Past Weeks' High & Low Weather Summary

 TemperatureHumidityPressure
High91 °F (Oct 9, 3:00 PM)100% (Oct 8, 7:00 AM)30.09 "Hg (Oct 8, 7:00 AM)
Low68 °F (Oct 12, 8:00 AM)43% (Oct 12, 3:00 PM)29.77 "Hg (Oct 10, 3:00 PM)
Average78 °F82%29.92 "Hg
* Reported Oct 8 5:00 AM — Oct 23 5:00 AM, Labadee, Weather by CustomWeather, © 2014

Note: Actual official high and low records may vary slightly from our data, if they occured in-between our weather recording intervals... More about our weather records

Advertising

Labadee weather history for previous 24 hours

 ConditionsComfort  
Time TempWeatherWind HumidityBarometerVisibility
5:00 AM
Oct 23
75 °FPassing clouds.5 mph100%29.89 "HgN/A
4:00 AM75 °FPassing clouds.7 mph100%29.89 "HgN/A
3:00 AM75 °FPassing clouds.8 mph100%29.89 "HgN/A
2:00 AM75 °FPassing clouds.8 mph100%29.92 "HgN/A
1:00 AM75 °FPassing clouds.5 mph94%29.92 "HgN/A
12:00 AM77 °FPassing clouds.5 mph89%29.92 "HgN/A
11:00 PM
Oct 22
77 °FPassing clouds.5 mph89%29.92 "HgN/A
10:00 PM79 °FPassing clouds.5 mph84%29.92 "HgN/A
9:00 PM81 °FPassing clouds.5 mph79%29.92 "HgN/A
8:00 PM79 °FPassing clouds.6 mph79%29.89 "HgN/A
7:00 PM84 °FPassing clouds.7 mph62%29.86 "HgN/A
6:00 PM86 °FScattered clouds.9 mph62%29.86 "HgN/A
5:00 PM88 °FScattered clouds.12 mph59%29.83 "HgN/A
4:00 PM90 °FPassing clouds.12 mph52%29.83 "HgN/A
3:00 PM90 °FPassing clouds.13 mph55%29.86 "HgN/A
2:00 PM88 °FPassing clouds.14 mph62%29.89 "HgN/A
1:00 PM88 °FPassing clouds.14 mph62%29.92 "HgN/A
12:00 PM86 °FPassing clouds.12 mph66%29.95 "HgN/A
11:00 AM84 °FPassing clouds.14 mph74%29.98 "HgN/A
10:00 AM82 °FPassing clouds.10 mph74%29.98 "HgN/A
9:00 AM79 °FPassing clouds.7 mph89%29.98 "HgN/A
8:00 AM75 °FPassing clouds.No wind94%29.95 "HgN/A
7:00 AM73 °FFog.3 mph100%29.95 "Hg2 mi
6:00 AM73 °FPassing clouds.5 mph100%29.92 "HgN/A
5:00 AM72 °FPassing clouds.7 mph100%29.92 "HgN/A
Weather by CustomWeather, © 2014

See weather overviewHow to use our weather pages